CQ0XCR-11 Weather Reports


time (UTC)temp
F
wind
direction
speed
knots
gust
knots
rain 1hr
in
rain 24hr
in
rain mn
in
humidity
%
barometer
mb
20260507044636 27 0 1.7 3.5 0.00 0.00 0.01 6550.2
20260507044604 27 0 1.7 3.5 0.00 0.00 0.01 6550.2
20260507044400 27 344 0.9 3.5 0.00 0.00 0.01 6550.2
20260507044156 27 324 1.7 3.5 0.00 0.00 0.01 6550.2
20260507044025 27 338 0.9 3.5 0.00 0.00 0.01 6550.2
20260507043952 27 338 0.9 3.5 0.00 0.00 0.01 6550.2
20260507043822 27 301 0.0 3.5 0.00 0.00 0.01 6550.2
20260507043748 27 301 0.0 3.5 0.00 0.00 0.01 6550.2
20260507043544 27 333 2.6 3.5 0.00 0.00 0.01 6550.2
20260507043421 27 358 0.9 2.6 0.00 0.00 0.01 6550.2
20260507043340 27 358 0.9 2.6 0.00 0.00 0.01 6550.2
20260507043136 27 317 2.6 3.5 0.00 0.00 0.01 6550.2
20260507042932 27 300 1.7 4.3 0.00 0.00 0.01 6550.2
20260507042818 27 317 1.7 4.3 0.00 0.00 0.01 6550.2
20260507042728 27 317 1.7 4.3 0.00 0.00 0.01 6550.2
20260507042615 27 37 0.9 4.3 0.00 0.00 0.01 6550.2
20260507042524 27 37 0.9 4.3 0.00 0.00 0.01 6550.2
20260507042403 27 45 0.0 2.6 0.00 0.00 0.01 6550.2
20260507042320 27 45 0.0 2.6 0.00 0.00 0.01 6550.2
20260507042116 27 350 1.7 2.6 0.00 0.00 0.01 6550.2
20260507041912 27 270 0.0 1.7 0.00 0.00 0.01 6550.2
20260507041708 27 315 0.9 0.9 0.00 0.00 0.01 6550.2
20260507041504 27 45 0.0 1.7 0.00 0.00 0.01 6550.2
20260507041300 27 289 0.9 1.7 0.00 0.00 0.01 6550.2
20260507041056 27 51 0.9 2.6 0.00 0.00 0.01 6550.2
20260507040852 27 328 0.9 2.6 0.00 0.00 0.01 6550.2
20260507040648 27 9 0.9 1.7 0.00 0.00 0.01 6550.2
20260507040444 27 330 1.7 3.5 0.00 0.00 0.01 6550.2
20260507040325 27 315 0.9 3.5 0.00 0.00 0.01 6550.2
20260507040240 27 315 0.9 3.5 0.00 0.00 0.01 6550.2
20260507040036 27 323 2.6 3.5 0.00 0.00 0.01 6550.2
20260507035832 27 315 0.0 3.5 0.00 0.00 0.01 6550.2
20260507035628 27 326 0.9 3.5 0.00 0.00 0.01 6550.2
20260507035501 27 318 2.6 3.5 0.00 0.00 0.01 6550.2
20260507035424 27 318 2.6 3.5 0.00 0.00 0.01 6550.2
20260507035220 27 279 0.9 2.6 0.00 0.00 0.01 6550.2
20260507035016 27 339 2.6 2.6 0.00 0.00 0.01 6550.2
20260507034812 27 292 0.9 4.3 0.00 0.00 0.01 6550.2
20260507034404 27 308 0.9 2.6 0.00 0.00 0.01 6550.2
20260507034200 27 323 0.9 3.5 0.00 0.00 0.01 6550.2
20260507033956 27 329 2.6 3.5 0.00 0.00 0.01 6550.2
20260507033837 27 348 0.9 3.5 0.00 0.00 0.01 6550.2
20260507033752 27 348 0.9 3.5 0.00 0.00 0.01 6550.2
20260507033344 27 334 0.9 1.7 0.00 0.00 0.01 6550.2
20260507033140 27 269 0.0 1.7 0.00 0.00 0.01 6550.2
20260507032936 27 348 0.0 2.6 0.00 0.00 0.01 6550.2
20260507032823 27 315 0.0 2.6 0.00 0.00 0.01 6550.2
20260507032732 27 315 0.0 2.6 0.00 0.00 0.01 6550.2
20260507032528 27 5 0.9 2.6 0.00 0.00 0.01 6550.2
20260507032324 27 314 0.9 2.6 0.00 0.00 0.01 6550.2
20260507032120 27 312 0.0 2.6 0.00 0.00 0.01 6550.2
20260507031917 27 356 0.9 0.9 0.00 0.00 0.01 6550.2
20260507031712 27 66 0.0 1.7 0.00 0.00 0.01 6550.2
20260507031509 27 90 0.0 1.7 0.00 0.00 0.01 6550.2
20260507031304 27 331 0.9 1.7 0.00 0.00 0.01 6550.2
20260507031101 27 324 0.9 2.6 0.00 0.00 0.01 6550.2
20260507030653 27 339 1.7 2.6 0.00 0.00 0.01 6550.2
20260507030449 27 325 0.9 0.9 0.00 0.00 0.01 6550.2
20260507030323 27 0 0.0 0.9 0.00 0.00 0.01 6550.2
20260507030245 27 0 0.0 0.9 0.00 0.00 0.01 6550.2
20260507030122 27 327 0.0 2.6 0.00 0.00 0.01 6550.2
20260507030040 27 327 0.0 2.6 0.00 0.00 0.01 6550.2
20260507025837 27 301 0.0 2.6 0.00 0.00 0.01 6550.2
20260507025632 27 45 0.0 0.9 0.00 0.00 0.01 6550.2
20260507025503 27 315 0.0 1.7 0.00 0.00 0.01 6550.2
20260507025429 27 315 0.0 1.7 0.00 0.00 0.01 6550.2
20260507025224 27 313 0.0 2.6 0.00 0.00 0.01 6550.2
20260507025055 27 312 0.0 2.6 0.00 0.00 0.00 6550.2
20260507025021 27 312 0.0 2.6 0.00 0.00 0.00 6550.2
20260507024816 27 293 0.9 2.6 0.00 0.00 0.00 6550.2
20260507024613 27 61 0.0 1.7 0.00 0.00 0.00 6550.2
20260507024408 27 331 0.9 0.9 0.00 0.00 0.00 6550.2
20260507024205 27 89 0.0 1.7 0.00 0.00 0.00 6550.2
20260507024000 27 50 0.0 1.7 0.00 0.00 0.00 6550.2
20260507023757 27 341 0.0 1.7 0.00 0.00 0.00 6550.2
20260507023349 27 340 0.0 1.7 0.00 0.00 0.00 6550.2
20260507023145 27 313 0.9 1.7 0.00 0.00 0.00 6550.2
20260507022737 27 299 0.0 3.5 0.00 0.00 0.00 6550.2
20260507022533 27 307 0.9 3.5 0.00 0.00 0.00 6550.2
20260507022400 27 315 0.0 1.7 0.00 0.00 0.00 6550.2
20260507022329 27 315 0.0 1.7 0.00 0.00 0.00 6550.2
20260507022208 27 350 0.9 1.7 0.00 0.00 0.00 6550.2
20260507022125 27 350 0.9 1.7 0.00 0.00 0.00 6550.2
20260507021921 27 338 0.0 0.9 0.00 0.00 0.00 6550.2
20260507021825 27 294 0.9 0.9 0.00 0.00 0.00 6550.2
20260507021717 27 294 0.9 0.9 0.00 0.00 0.00 6550.2
20260507021513 27 225 0.0 1.7 0.00 0.00 0.00 6550.2
20260507021309 27 270 0.0 1.7 0.00 0.00 0.00 6550.2
20260507021105 27 317 0.9 1.7 0.00 0.00 0.00 6550.2
20260507020901 27 319 0.9 1.7 0.00 0.00 0.00 6550.2
20260507020657 27 224 0.0 2.6 0.00 0.00 0.00 6550.2
20260507020542 27 301 0.9 2.6 0.00 0.00 0.00 6550.2
20260507020453 27 301 0.9 2.6 0.00 0.00 0.00 6550.2
20260507020249 27 289 0.0 1.7 0.00 0.00 0.00 6550.2
20260507020117 27 335 0.9 1.7 0.00 0.00 0.00 6550.2
20260507020045 27 335 0.9 1.7 0.00 0.00 0.00 6550.2
20260507015934 27 339 0.9 1.7 0.00 0.00 0.00 6550.2
20260507015841 27 339 0.9 1.7 0.00 0.00 0.00 6550.2
20260507015637 27 315 0.9 2.6 0.00 0.00 0.00 6550.2
20260507015433 27 279 0.9 2.6 0.00 0.00 0.00 6550.2
20260507015229 27 312 0.9 2.6 0.00 0.00 0.00 6550.2
20260507015025 27 341 1.7 2.6 0.00 0.00 0.00 6550.2
20260507014821 27 319 0.9 2.6 0.00 0.00 0.00 6550.2
20260507014413 27 296 1.7 3.5 0.00 0.00 0.00 6550.2
20260507014209 27 328 1.7 3.5 0.00 0.00 0.00 6550.2
20260507014005 27 294 2.6 3.5 0.00 0.00 0.00 6550.2
20260507013801 27 340 0.9 2.6 0.00 0.00 0.00 6550.2
20260507013557 27 333 1.7 2.6 0.00 0.00 0.00 6550.2
20260507013353 27 346 0.9 3.5 0.00 0.00 0.00 6550.2
20260507013149 27 313 2.6 3.5 0.00 0.00 0.00 6550.2
20260507012945 27 351 0.9 3.5 0.00 0.00 0.00 6550.2
20260507012741 27 325 0.9 3.5 0.00 0.00 0.00 6550.2
20260507012333 27 306 2.6 2.6 0.00 0.00 0.00 6550.2
20260507012129 27 315 0.9 3.5 0.00 0.00 0.00 6550.2
20260507011925 27 299 0.9 3.5 0.00 0.00 0.00 6550.2
20260507011517 27 315 0.9 3.5 0.00 0.00 0.00 6550.2
20260507011313 27 270 1.7 1.7 0.00 0.00 0.00 6550.2
20260507011109 27 45 0.9 1.7 0.00 0.00 0.00 6550.2
20260507010905 27 45 0.0 1.7 0.00 0.00 0.00 6550.2
20260507010701 27 312 0.9 1.7 0.00 0.00 0.00 6550.2
20260507010457 27 300 0.9 2.6 0.00 0.00 0.00 6550.2
20260507010253 27 79 0.9 2.6 0.00 0.00 0.00 6550.2
20260507010131 27 26 2.6 2.6 0.00 0.00 0.00 6550.2
20260507010049 27 26 2.6 2.6 0.00 0.00 0.00 6550.2
20260507005845 27 302 0.0 1.7 0.00 0.00 0.00 6550.2
20260507005641 27 304 0.9 1.7 0.00 0.00 0.00 6550.2
20260507005437 27 45 0.0 1.7 0.00 0.00 0.00 6550.2
20260507005233 27 276 0.0 1.7 0.00 0.00 0.00 6550.2
20260507005029 27 0 0.9 3.5 0.00 0.00 0.00 6550.2
20260507004621 27 324 2.6 3.5 0.00 0.00 0.00 6550.2
20260507004417 27 44 0.9 0.9 0.00 0.00 0.00 6550.2
20260507004214 27 112 0.0 0.0 0.00 0.00 0.00 6550.2
20260507004022 27 135 0.0 1.7 0.00 0.00 0.01 6550.2
20260507003818 27 90 0.0 1.7 0.00 0.00 0.01 6550.2
20260507003614 27 25 0.0 2.6 0.00 0.00 0.01 6550.2
20260507003206 27 37 0.9 3.5 0.00 0.00 0.01 6550.2
20260507003002 27 354 0.9 3.5 0.00 0.00 0.01 6550.2
20260507002758 27 316 3.5 3.5 0.00 0.00 0.01 6550.2
20260507002554 27 321 1.7 3.5 0.00 0.00 0.01 6550.2
20260507002350 27 317 1.7 3.5 0.00 0.00 0.01 6550.2
20260507001942 27 317 0.9 3.5 0.00 0.00 0.01 6550.2
20260507001738 27 327 2.6 3.5 0.00 0.00 0.01 6550.2
20260507001534 27 315 0.0 2.6 0.00 0.00 0.01 6550.2
20260507001330 27 359 0.9 2.6 0.00 0.00 0.01 6550.2
20260507001126 27 0 0.9 1.7 0.00 0.00 0.01 6550.2
20260507000922 27 22 0.0 1.7 0.00 0.00 0.01 6550.2
20260507000514 27 281 0.0 1.7 0.00 0.00 0.01 6550.2
20260507000310 27 90 0.0 1.7 0.00 0.00 0.01 6550.2
20260507000142 27 74 0.9 0.9 0.00 0.00 0.01 6550.2
20260507000106 27 74 0.9 0.9 0.00 0.00 0.01 6550.2
20260506235902 27 337 0.9 0.9 0.00 0.00 0.01 6550.2
20260506235658 27 243 0.0 0.9 0.00 0.00 0.01 6550.2
20260506235454 27 324 0.9 2.6 0.00 0.00 0.01 6550.2
20260506235250 27 315 0.0 2.6 0.00 0.00 0.01 6550.2
20260506235046 27 18 0.9 3.5 0.00 0.00 0.01 6550.2
20260506234842 27 45 0.0 3.5 0.00 0.00 0.01 6550.2
20260506234638 27 279 2.6 2.6 0.00 0.00 0.01 6550.2
20260506234434 27 0 0.9 0.9 0.00 0.00 0.01 6550.2
20260506234306 27 89 0.0 1.7 0.00 0.00 0.01 6550.2
20260506234230 27 89 0.0 1.7 0.00 0.00 0.01 6550.2
20260506234026 27 234 0.0 1.7 0.00 0.00 0.01 6550.2
20260506233822 27 90 0.0 1.7 0.00 0.00 0.00 6550.2
20260506233618 27 329 0.0 1.7 0.00 0.00 0.00 6550.2
20260506233414 27 270 0.0 3.5 0.00 0.00 0.00 6550.2
20260506233210 27 16 0.9 3.5 0.00 0.00 0.00 6550.2
20260506233006 27 18 2.6 3.5 0.00 0.00 0.00 6550.2
20260506232802 27 333 1.7 3.5 0.00 0.00 0.00 6550.2
20260506232558 27 349 1.7 3.5 0.00 0.00 0.00 6550.2
20260506232354 27 0 0.0 2.6 0.00 0.00 0.00 6550.2
20260506232241 27 103 0.9 0.9 0.00 0.00 0.00 6550.2
20260506232234 27 44 3.5 3.5 0.00 0.00 0.00 6550.2
20260506232150 27 103 0.9 0.9 0.00 0.00 0.00 6550.2
20260506232142 27 44 3.5 3.5 0.00 0.00 0.00 6550.2
20260506231734 27 42 1.7 3.5 0.00 0.00 0.00 6550.2
20260506231702 27 76 2.6 3.5 0.00 0.00 0.00 6550.2
20260506231530 27 76 2.6 3.5 0.00 0.00 0.00 6550.2
20260506231326 27 13 2.6 2.6 0.00 0.00 0.00 6550.2
20260506231122 27 109 0.9 1.7 0.00 0.00 0.00 6550.2
20260506231000 27 58 1.7 4.3 0.00 0.00 0.00 6550.2
20260506230918 27 58 1.7 4.3 0.00 0.00 0.00 6550.2
20260506230714 27 82 1.7 4.3 0.00 0.00 0.00 6550.2
20260506230558 27 359 2.6 3.5 0.00 0.00 0.00 6550.2
20260506230510 27 359 2.6 3.5 0.00 0.00 0.00 6550.2
20260506230306 27 44 1.7 3.5 0.00 0.00 0.00 6550.2
20260506230138 27 91 0.0 3.5 0.00 0.00 0.00 6550.2
20260506225858 27 338 1.7 3.5 0.00 0.00 0.00 6550.2
20260506225654 27 337 1.7 4.3 0.00 0.00 0.00 6550.2
20260506225450 27 307 0.9 4.3 0.00 0.00 0.00 6550.2
20260506225246 27 33 1.7 4.3 0.00 0.00 0.00 6550.2
20260506225042 27 327 1.7 3.5 0.00 0.00 0.00 6550.2
20260506224838 27 331 3.5 3.5 0.00 0.00 0.00 6550.2
20260506224712 27 331 3.5 3.5 0.00 0.00 0.00 6550.2
20260506224634 27 331 3.5 3.5 0.00 0.00 0.00 6550.2
20260506224505 27 20 0.0 3.5 0.00 0.00 0.00 6550.2
20260506224430 27 20 0.0 3.5 0.00 0.00 0.00 6550.2
20260506224022 27 6 0.9 3.5 0.00 0.00 0.00 6550.2
20260506223818 27 275 0.9 3.5 0.00 0.00 0.00 6550.2
20260506223659 27 326 1.7 2.6 0.00 0.00 0.00 6550.2
20260506223614 27 326 1.7 2.6 0.00 0.00 0.00 6550.2
20260506223446 27 289 0.9 2.6 0.00 0.00 0.00 6550.2
20260506223411 27 289 0.9 2.6 0.00 0.00 0.00 6550.2
20260506223105 27 352 0.9 2.6 0.00 0.00 0.00 6550.2
20260506223003 27 352 0.9 2.6 0.00 0.00 0.00 6550.2
20260506222758 27 273 0.9 3.5 0.00 0.00 0.00 6550.2
20260506222627 27 261 0.0 3.5 0.00 0.00 0.00 6550.2
20260506222555 27 261 0.0 3.5 0.00 0.00 0.00 6550.2
20260506222350 27 333 2.6 4.3 0.00 0.00 0.00 6550.2
20260506222147 27 324 3.5 4.3 0.00 0.00 0.00 6550.2
20260506221942 27 305 2.6 2.6 0.00 0.00 0.00 6550.2
20260506221739 27 99 0.0 0.0 0.00 0.00 0.00 6550.2
20260506221614 27 18 0.9 4.3 0.00 0.00 0.00 6550.2
20260506221410 27 330 3.5 4.3 0.00 0.00 0.00 6550.2
20260506221247 27 0 0.9 4.3 0.00 0.00 0.00 6550.2
20260506221206 27 0 0.9 4.3 0.00 0.00 0.00 6550.2
20260506221002 27 335 0.9 4.3 0.00 0.00 0.00 6550.2
20260506220758 27 318 3.5 4.3 0.00 0.00 0.00 6550.2
20260506220554 27 53 2.6 4.3 0.00 0.00 0.00 6550.2
20260506220350 27 325 2.6 5.2 0.00 0.00 0.00 6550.2
20260506220228 27 8 0.9 5.2 0.00 0.00 0.00 6550.2
20260506220146 27 8 0.9 5.2 0.00 0.00 0.00 6550.2
20260506215942 27 358 1.7 5.2 0.00 0.00 0.00 6550.2
20260506215738 27 358 2.6 5.2 0.00 0.00 0.00 6550.2
20260506215534 27 325 0.9 4.3 0.00 0.00 0.00 6550.2
20260506215330 27 328 3.5 4.3 0.00 0.00 0.00 6550.2
20260506215126 27 351 2.6 4.3 0.00 0.00 0.00 6550.2
20260506214922 27 322 0.9 3.5 0.00 0.00 0.01 6550.2
20260506214718 27 326 0.9 3.5 0.00 0.00 0.01 6550.2
20260506214514 27 221 1.7 6.1 0.00 0.00 0.01 6550.2
20260506214310 27 20 0.9 7.0 0.00 0.00 0.01 6550.2
20260506214147 27 311 5.2 7.0 0.00 0.00 0.01 6550.2
20260506214106 27 311 5.2 7.0 0.00 0.00 0.01 6550.2
20260506213902 27 333 4.3 7.0 0.00 0.00 0.01 6550.2
20260506213658 27 52 4.3 4.3 0.00 0.00 0.01 6550.2
20260506213454 27 318 2.6 3.5 0.00 0.00 0.01 6550.2
20260506213250 27 5 0.9 4.3 0.00 0.00 0.01 6550.2
20260506213046 27 308 2.6 4.3 0.00 0.00 0.01 6550.2
20260506212842 27 324 2.6 4.3 0.00 0.00 0.01 6550.2
20260506212638 27 314 1.7 2.6 0.00 0.00 0.01 6550.2
20260506212434 27 358 0.9 4.3 0.00 0.00 0.01 6550.2
20260506212230 27 236 0.0 5.2 0.00 0.00 0.01 6550.2
20260506212124 27 354 0.9 5.2 0.00 0.00 0.01 6550.2
20260506212026 27 354 0.9 5.2 0.00 0.00 0.01 6550.2
20260506211853 27 292 2.6 5.2 0.00 0.00 0.01 6550.2
20260506211822 27 292 2.6 5.2 0.00 0.00 0.01 6550.2
20260506211618 27 337 3.5 5.2 0.00 0.00 0.01 6550.2
20260506211414 27 65 1.7 5.2 0.00 0.00 0.01 6550.2
20260506211210 27 339 2.6 5.2 0.00 0.00 0.01 6550.2
20260506211006 27 333 4.3 7.0 0.00 0.00 0.01 6550.2
20260506210802 27 310 1.7 7.0 0.00 0.00 0.01 6550.2
20260506210558 27 320 6.1 6.1 0.00 0.00 0.01 6550.2
20260506210441 27 321 3.5 4.3 0.00 0.00 0.01 6550.2
20260506210354 27 321 3.5 4.3 0.00 0.00 0.01 6550.2
20260506210150 27 342 1.7 4.3 0.00 0.00 0.01 6550.2
20260506210040 27 43 2.6 4.3 0.00 0.00 0.01 6550.2
20260506205946 27 43 2.6 4.3 0.00 0.00 0.01 6550.2
20260506205742 27 315 0.9 4.3 0.00 0.00 0.01 6550.2
20260506205538 27 345 1.7 6.1 0.00 0.00 0.01 6550.2
20260506205334 27 335 4.3 6.1 0.00 0.00 0.01 6550.2
20260506205130 27 329 4.3 6.1 0.00 0.00 0.01 6550.2
20260506204926 27 325 1.7 6.1 0.00 0.00 0.01 6550.2
20260506204722 27 296 5.2 5.2 0.00 0.00 0.01 6550.2
20260506204518 27 316 0.9 5.2 0.00 0.00 0.01 6550.2
20260506204314 27 343 3.5 4.3 0.00 0.00 0.01 6550.2
20260506204110 27 305 1.7 5.2 0.00 0.00 0.01 6550.2
20260506203955 27 303 2.6 5.2 0.00 0.00 0.01 6550.2
20260506203906 27 303 2.6 5.2 0.00 0.00 0.01 6550.2
20260506203702 27 285 3.5 6.1 0.00 0.00 0.01 6550.2
20260506203254 27 315 6.1 6.1 0.00 0.00 0.01 6550.2
20260506203050 27 322 2.6 6.1 0.00 0.00 0.01 6550.2
20260506202937 27 331 4.3 6.1 0.00 0.00 0.01 6550.2
20260506202846 27 331 4.3 6.1 0.00 0.00 0.01 6550.2
20260506202714 27 305 4.3 7.0 0.00 0.00 0.00 6550.2
20260506202643 27 305 4.3 7.0 0.00 0.00 0.00 6550.2
20260506202438 27 299 2.6 7.0 0.00 0.00 0.00 6550.2
20260506202235 27 348 4.3 7.0 0.00 0.00 0.00 6550.2
20260506202030 27 326 5.2 7.8 0.00 0.00 0.00 6550.2
20260506201827 27 347 4.3 7.8 0.00 0.00 0.00 6550.2
20260506201419 27 334 4.3 5.2 0.00 0.00 0.00 6550.2
20260506201214 27 322 2.6 6.1 0.00 0.00 0.00 6550.2
20260506201011 27 301 3.5 7.8 0.00 0.00 0.00 6550.2
20260506200603 27 325 3.5 7.8 0.00 0.00 0.00 6550.2
20260506200300 27 298 1.7 4.3 0.00 0.00 0.00 6550.2
20260506200155 27 298 1.7 4.3 0.00 0.00 0.00 6550.2
20260506195950 27 303 2.6 4.3 0.00 0.00 0.00 6550.2
20260506195747 27 312 3.5 7.8 0.00 0.00 0.00 6550.2
20260506195542 27 319 2.6 7.8 0.00 0.00 0.00 6550.2
20260506195417 27 259 1.7 6.1 0.00 0.00 0.00 6550.2
20260506195339 27 259 1.7 6.1 0.00 0.00 0.00 6550.2
20260506195134 27 302 5.2 6.1 0.00 0.00 0.00 6550.2
20260506194931 27 298 1.7 5.2 0.00 0.00 0.00 6550.2
20260506194727 27 323 4.3 6.1 0.00 0.00 0.00 6550.2
20260506194523 27 284 1.7 6.1 0.00 0.00 0.00 6550.2
20260506194318 27 303 3.5 8.7 0.00 0.00 0.00 6550.2
20260506194115 27 301 6.1 8.7 0.00 0.00 0.00 6550.2
20260506193911 27 314 5.2 8.7 0.00 0.00 0.00 6550.2
20260506193707 27 320 2.6 7.0 0.00 0.00 0.00 6550.2
20260506193503 27 338 4.3 7.0 0.00 0.00 0.00 6550.2
20260506193259 27 329 1.7 5.2 0.00 0.00 0.00 6550.2
20260506193055 27 331 1.7 5.2 0.00 0.00 0.00 6550.2
20260506192851 27 296 3.5 6.1 0.00 0.00 0.00 6550.2
20260506192647 27 322 4.3 6.1 0.00 0.00 0.00 6550.2
20260506192443 27 288 6.1 7.0 0.00 0.00 0.00 6550.2
20260506192239 27 280 1.7 7.0 0.00 0.00 0.00 6550.2
20260506192035 27 289 2.6 7.0 0.00 0.00 0.00 6550.2
20260506191831 27 300 5.2 7.0 0.00 0.00 0.00 6550.2
20260506191627 27 305 1.7 8.7 0.00 0.00 0.00 6550.2
20260506191456 27 327 3.5 8.7 0.00 0.00 0.00 6550.2
20260506191423 27 327 3.5 8.7 0.00 0.00 0.00 6550.2
20260506191219 27 291 4.3 7.0 0.00 0.00 0.00 6550.2
20260506191052 27 274 3.5 8.7 0.00 0.00 0.00 6550.2
20260506191015 27 274 3.5 8.7 0.00 0.00 0.00 6550.2
20260506190811 27 298 3.5 8.7 0.00 0.00 0.00 6550.2
20260506190607 27 299 6.1 8.7 0.00 0.00 0.00 6550.2
20260506190403 27 291 6.1 7.8 0.00 0.00 0.00 6550.2
20260506190159 27 329 5.2 7.8 0.00 0.00 0.00 6550.2
20260506185955 27 292 4.3 9.6 0.00 0.00 0.00 6550.2
20260506185751 27 294 4.3 9.6 0.00 0.00 0.00 6550.2
20260506185547 27 313 4.3 7.8 0.00 0.00 0.00 6550.2
20260506185343 27 296 4.3 7.8 0.00 0.00 0.00 6550.2
20260506185139 27 290 7.8 7.8 0.00 0.00 0.00 6550.2
20260506184935 27 290 5.2 8.7 0.00 0.00 0.00 6550.2
20260506184731 27 312 4.3 8.7 0.00 0.00 0.00 6550.2
20260506184527 27 293 5.2 8.7 0.00 0.00 0.00 6550.2
20260506184323 27 294 4.3 7.0 0.00 0.00 0.00 6550.2
20260506184119 27 308 6.1 7.0 0.00 0.00 0.00 6550.2
20260506183915 27 300 6.1 7.0 0.00 0.00 0.00 6550.2
20260506183711 27 312 1.7 7.0 0.00 0.00 0.00 6550.2
20260506183507 27 296 5.2 8.7 0.00 0.00 0.00 6550.2
20260506183349 27 297 4.3 8.7 0.00 0.00 0.00 6550.2
20260506183303 27 297 4.3 8.7 0.00 0.00 0.00 6550.2
20260506183059 27 301 6.1 8.7 0.00 0.00 0.00 6550.2
20260506182855 27 287 6.1 8.7 0.00 0.00 0.00 6550.2
20260506182243 27 315 3.5 7.0 0.00 0.00 0.00 6550.2
20260506182039 27 325 6.1 8.7 0.00 0.00 0.00 6550.2
20260506181835 27 318 7.0 8.7 0.00 0.00 0.00 6550.2
20260506181427 27 317 4.3 8.7 0.00 0.00 0.00 6550.2
20260506181020 27 112 1.7 1.7 0.00 0.00 0.00 6550.2
20260506180651 27 302 6.1 8.7 0.00 0.00 0.00 6550.2
20260506180243 27 266 7.0 9.6 0.00 0.00 0.00 6550.2
20260506180039 27 290 6.1 12.2 0.00 0.00 0.00 6550.2
20260506175835 27 309 7.0 12.2 0.00 0.00 0.00 6550.2
20260506175631 27 289 7.8 7.8 0.00 0.00 0.00 6550.2
20260506175428 27 294 7.0 8.7 0.00 0.00 0.00 6550.2
20260506175223 27 295 7.0 8.7 0.00 0.00 0.00 6550.2
20260506175020 27 308 3.5 8.7 0.00 0.00 0.00 6550.2
20260506174815 27 311 5.2 7.8 0.00 0.00 0.00 6550.2
20260506174612 27 293 7.0 8.7 0.00 0.00 0.00 6550.2
20260506174204 27 279 7.0 10.4 0.00 0.00 0.00 6550.2
20260506173959 27 316 8.7 11.3 0.00 0.00 0.00 6550.2
20260506173756 27 302 8.7 11.3 0.00 0.00 0.00 6550.2
20260506173348 27 288 5.2 8.7 0.00 0.00 0.00 6550.2
20260506172940 27 292 2.6 9.6 0.00 0.00 0.00 6550.2
20260506172735 27 304 7.8 9.6 0.00 0.00 0.00 6550.2
20260506172532 27 304 6.1 9.6 0.00 0.00 0.00 6550.2
20260506172327 27 313 8.7 9.6 0.00 0.00 0.00 6550.2
20260506172124 27 308 4.3 8.7 0.00 0.00 0.00 6550.2
20260506171716 27 303 8.7 8.7 0.00 0.00 0.00 6550.2
20260506171511 27 306 9.6 18.2 0.00 0.00 0.00 6550.2
20260506170900 27 313 7.0 10.4 0.00 0.00 0.00 6550.2
20260506170248 27 275 6.1 9.6 0.00 0.00 0.00 6550.2
20260506162536 27 337 6.1 7.8 0.00 0.00 0.00 6550.2
20260506162128 27 295 7.0 8.7 0.00 0.00 0.00 6550.2
20260506161924 27 330 5.2 8.7 0.00 0.00 0.00 6550.2
20260506160700 27 290 5.2 8.7 0.00 0.00 0.00 6550.2
20260506160048 27 284 4.3 11.3 0.00 0.00 0.00 6550.2
20260506154212 27 339 7.0 8.7 0.00 0.00 0.00 6550.2
20260506145026 27 309 4.3 7.8 0.00 0.00 0.00 6550.2
20260506144211 27 301 5.2 7.0 0.00 0.00 0.00 6550.2
20260506144006 27 322 2.6 5.2 0.00 0.00 0.00 6550.2
20260506140159 27 23 3.5 4.3 0.00 0.00 0.00 6550.2
20260506135955 27 4 2.6 7.0 0.00 0.00 0.00 6550.2
20260506135343 27 285 6.1 8.7 0.00 0.00 0.00 6550.2
20260506134935 27 307 5.2 9.6 0.00 0.00 0.00 6550.2
20260506134527 27 290 5.2 6.1 0.00 0.00 0.00 6550.2
20260506134323 27 326 4.3 6.1 0.00 0.00 0.00 6550.2
20260506134119 27 277 2.6 9.6 0.00 0.00 0.00 6550.2
20260506125755 27 283 1.7 7.8 0.00 0.00 0.00 6550.2
20260506125551 27 311 6.1 8.7 0.00 0.00 0.00 6550.2
20260506125347 27 342 5.2 8.7 0.00 0.00 0.00 6550.2
20260506125143 27 308 4.3 8.7 0.00 0.00 0.00 6550.2
20260506124940 27 316 1.7 7.8 0.00 0.00 0.00 6550.2
20260506121024 27 280 2.6 6.1 0.00 0.00 0.00 6550.2
20260506120820 27 274 1.7 10.4 0.00 0.00 0.00 6550.2
20260506120616 27 294 4.3 10.4 0.00 0.00 0.00 6550.2
20260506120208 27 272 3.5 7.0 0.00 0.00 0.00 6550.2
20260506120004 27 351 3.5 7.0 0.00 0.00 0.00 6550.2
20260506114332 27 313 8.7 12.2 0.00 0.00 0.00 6550.2
20260506114128 27 274 2.6 4.3 0.00 0.00 0.00 6550.2
20260506113839 27 60 7.0 7.0 0.00 0.00 0.01 6550.2
20260506113635 27 56 2.6 6.1 0.00 0.00 0.01 6550.2
20260506112233 27 328 8.7 8.7 0.00 0.00 0.01 6550.2
20260506105355 27 278 4.3 6.1 0.00 0.00 0.01 6550.2
20260506102416 27 317 3.5 6.1 0.00 0.00 0.00 6550.2
20260506102007 27 277 1.7 7.0 0.00 0.00 0.00 6550.2
20260506101623 27 286 3.5 5.2 0.00 0.00 0.00 6550.2
20260506101226 27 318 2.6 7.0 0.00 0.00 0.00 6550.2
20260506101152 27 318 2.6 7.0 0.00 0.00 0.00 6550.2
20260506100805 27 306 5.2 6.1 0.00 0.00 0.00 6550.2
20260506100556 27 311 3.5 7.0 0.00 0.00 0.00 6550.2
20260506100144 27 355 3.5 6.1 0.00 0.00 0.00 6550.2
20260506100034 27 355 3.5 7.0 0.00 0.00 0.00 6550.2
20260506095928 27 355 3.5 7.0 0.00 0.00 0.00 6550.2
20260506095557 27 340 4.3 7.0 0.00 0.00 0.00 6550.2
20260506095316 27 328 2.6 5.2 0.00 0.00 0.00 6550.2
20260506094936 27 319 1.7 7.8 0.00 0.00 0.00 6550.2
20260506094730 27 308 5.2 7.8 0.00 0.00 0.00 6550.2
20260506094214 27 339 4.3 6.1 0.00 0.00 0.00 6550.2
20260506091446 27 291 5.2 6.1 0.00 0.00 0.00 6550.2
20260506091242 27 329 3.5 6.1 0.00 0.00 0.00 6550.2
20260506091039 27 325 3.5 5.2 0.00 0.00 0.00 6550.2
20260506090630 27 51 3.5 4.3 0.00 0.00 0.00 6550.2
20260506090426 27 38 3.5 5.2 0.00 0.00 0.00 6550.2
20260506090222 27 27 2.6 5.2 0.00 0.00 0.00 6550.2
20260506090018 27 347 1.7 5.2 0.00 0.00 0.00 6550.2
20260506085814 27 274 1.7 6.1 0.00 0.00 0.00 6550.2
20260506085610 27 58 0.9 6.1 0.00 0.00 0.00 6550.2
20260506085406 27 316 2.6 6.1 0.00 0.00 0.00 6550.2
20260506085202 27 322 2.6 3.5 0.00 0.00 0.00 6550.2
20260506084550 27 320 3.5 5.2 0.00 0.00 0.00 6550.2
20260506084347 27 283 1.7 5.2 0.00 0.00 0.00 6550.2
20260506083939 27 328 2.6 4.3 0.00 0.00 0.00 6550.2
20260506083825 27 319 3.5 5.2 0.00 0.00 0.00 6550.2
20260506083122 27 334 4.3 5.2 0.00 0.00 0.00 6550.2
20260506082918 27 301 2.6 4.3 0.00 0.00 0.00 6550.2
20260506082510 27 343 3.5 4.3 0.00 0.00 0.00 6550.2
20260506082313 27 44 2.6 3.5 0.00 0.00 0.00 6550.2
20260506082306 27 103 0.0 0.0 0.00 0.00 0.00 6550.2
20260506082234 27 44 2.6 3.5 0.00 0.00 0.00 6550.2
20260506082029 27 37 1.7 1.7 0.00 0.00 0.00 6550.2
20260506081827 27 347 0.9 2.6 0.00 0.00 0.00 6550.2
20260506081622 27 349 0.9 4.3 0.00 0.00 0.00 6550.2
20260506081418 27 27 1.7 4.3 0.00 0.00 0.00 6550.2
20260506081011 27 325 1.7 5.2 0.00 0.00 0.00 6550.2
20260506080806 27 23 4.3 5.2 0.00 0.00 0.00 6550.2
20260506080603 27 11 1.7 2.6 0.00 0.00 0.00 6550.2
20260506080358 27 270 0.0 2.6 0.00 0.00 0.00 6550.2
20260506080154 27 101 0.0 0.0 0.00 0.00 0.00 6550.2
20260506080149 27 60 0.9 3.5 0.00 0.00 0.00 6550.2
20260506073457 27 6 0.9 3.5 0.00 0.00 0.00 6550.2
20260506073254 27 54 2.6 2.6 0.00 0.00 0.00 6550.2
20260506073049 27 315 0.9 1.7 0.00 0.00 0.00 6550.2
20260506072845 27 9 1.7 1.7 0.00 0.00 0.00 6550.2
20260506072517 27 311 0.0 1.7 0.00 0.00 0.00 6550.2
20260506072439 27 311 0.0 1.7 0.00 0.00 0.00 6550.2
20260506072234 27 315 0.0 0.9 0.00 0.00 0.00 6550.2
20260506072029 27 0 0.0 1.7 0.00 0.00 0.00 6550.2
20260506071826 27 180 0.0 1.7 0.00 0.00 0.00 6550.2
20260506071505 27 315 0.0 1.7 0.00 0.00 0.00 6550.2
20260506071418 27 315 0.0 1.7 0.00 0.00 0.00 6550.2
20260506071214 27 45 0.9 2.6 0.00 0.00 0.00 6550.2
20260506071010 27 348 1.7 2.6 0.00 0.00 0.00 6550.2
20260506070805 27 278 0.9 2.6 0.00 0.00 0.00 6550.2
20260506070602 27 8 2.6 2.6 0.00 0.00 0.00 6550.2
20260506070225 27 50 1.7 2.6 0.00 0.00 0.00 6550.2
20260506070154 27 50 1.7 2.6 0.00 0.00 0.00 6550.2
20260506062505 27 89 0.0 0.0 0.00 0.00 0.03 6550.2
20260506062412 27 89 0.0 0.0 0.00 0.00 0.03 6550.2
20260506062208 27 102 0.0 0.9 0.00 0.00 0.03 6550.2
20260506062004 27 135 0.0 0.9 0.00 0.00 0.03 6550.2
20260506061800 27 135 0.0 0.9 0.00 0.00 0.03 6550.2
20260506061555 27 123 0.0 0.0 0.00 0.00 0.03 6550.2
20260506061424 27 45 0.0 0.0 0.00 0.00 0.03 6550.2
20260506061352 27 45 0.0 0.0 0.00 0.00 0.03 6550.2
20260506061150 27 101 0.0 0.0 0.00 0.00 0.03 6550.2
20260506060944 27 135 0.0 0.0 0.00 0.00 0.03 6550.2
20260506060739 27 315 0.0 2.6 0.00 0.00 0.03 6550.2
20260506060536 27 315 0.0 2.6 0.00 0.00 0.03 6550.2
20260506060331 27 42 1.7 2.6 0.00 0.00 0.03 6550.2
20260506060128 27 90 0.0 0.9 0.00 0.00 0.03 6550.2
20260506051356 27 115 0.9 1.7 0.00 0.00 0.01 6550.2
20260506051229 27 90 0.0 1.7 0.00 0.00 0.01 6550.2
20260506051152 27 90 0.0 1.7 0.00 0.00 0.01 6550.2
20260506050948 27 135 0.9 2.6 0.00 0.00 0.01 6550.2
20260506050744 27 97 0.9 2.6 0.00 0.00 0.01 6550.2
20260506050540 27 90 0.9 2.6 0.00 0.00 0.01 6550.2
20260506050413 27 110 1.7 1.7 0.00 0.00 0.01 6550.2
20260506050336 27 110 1.7 1.7 0.00 0.00 0.01 6550.2
20260506050132 27 104 0.9 1.7 0.00 0.00 0.01 6550.2
20260506045112 27 90 0.0 0.9 0.00 0.00 0.01 6550.2
20260506044908 27 69 0.9 0.9 0.00 0.00 0.01 6550.2